(273202) = 2006 JO12

Discovered at Kitt Peak on 2006-05-01 by Spacewatch.

Orbit

Orbit type: Main Belt

Note: WebGL enabled browser required.

epoch2023-09-13.0
epoch JD2460200.5
perihelion date2023-05-14.74667
perihelion JD2460079.24667
argument of perihelion (°)244.29890
ascending node (°)90.08938
inclination (°)10.79535
eccentricity0.3460781
perihelion distance (AU)1.9995489
Tisserand w.r.t. Jupiter3.1
ΔV w.r.t. Earth (km/sec)9.6
semimajor axis (AU)3.0577793
mean anomaly (°)22.35056
mean daily motion (°/day)0.18432940
aphelion distance (AU)4.116
period (years)5.35
P-vector [x]0.88579740
P-vector [y]-0.32948962
P-vector [z]-0.32680200
Q-vector [x]0.42459532
Q-vector [y]0.85963377
Q-vector [z]0.28416297
absolute magnitude15.21
phase slope0.15
uncertainty0
referenceMPEC 2024-A158
observations used643
oppositions15
arc length (days)8246
first opposition used2001
last opposition used2024
residual rms (arc-secs)0.63
perturbers coarse indicatorM-v
perturbers precise indicator003Ek
first observation date used2001-06-16.0
last observation date used2024-01-13.0
computer nameMPCLINUX
JD of orbit computation2456670.970785
perihelion JD uncertainty (days)4.3789E-05
argument of perihelion uncertainty (°)3.4520E-05
ascending node uncertainty (°)3.3155E-05
inclination uncertainty (°)5.8737E-06
eccentricity uncertainty 4.4644E-08
perihelion distance uncertainty (AU)1.3449E-07
Minimum Orbit Intersection Distances (in AU)
for orbit epoch: 2460200.5, reference: E2024-AF8
Mercury1.59704
Venus1.27871
Earth1.01629
Mars0.65467
Jupiter1.42294
Saturn5.22326
Uranus14.407
Neptune26.4045

Observations

655 total observations over interval: 2001 06 16.30555 – 2024 01 13.130610
These data are available for download (format description).

Date (UT) J2000 RA J2000 Dec Magn Location Ref
2001 06 16.30555 19 32 15.22 -24 19 49.3   704 – Lincoln Laboratory ETS, New Mexico MPS 407489
2001 06 16.31846 19 32 14.84 -24 19 56.4   704 – Lincoln Laboratory ETS, New Mexico MPS 407489
2001 06 16.33095 19 32 14.52 -24 20 02.8   704 – Lincoln Laboratory ETS, New Mexico MPS 407489
2001 06 16.34329 19 32 14.21 -24 20 08.3   704 – Lincoln Laboratory ETS, New Mexico MPS 407489
2001 06 16.35556 19 32 13.84 -24 20 13.8   704 – Lincoln Laboratory ETS, New Mexico MPS 407489
2006 05 01.36936 16 08 20.69 -10 56 38.2 20.0 V 691 – Steward Observatory, Kitt Peak-Spacewatch MPS 171443
2006 05 01.39009 16 08 19.78 -10 56 37.2 19.9 V 691 – Steward Observatory, Kitt Peak-Spacewatch MPS 171443
2006 05 01.40746 16 08 19.01 -10 56 36.2 20.6 V 691 – Steward Observatory, Kitt Peak-Spacewatch MPS 171443
2006 05 05.39829 16 05 25.04 -10 52 08.7 19.5 V 691 – Steward Observatory, Kitt Peak-Spacewatch MPS 171443
2006 05 05.41567 16 05 24.21 -10 52 07.6 19.5 V 691 – Steward Observatory, Kitt Peak-Spacewatch MPS 171443
2006 05 05.43304 16 05 23.40 -10 52 06.5 19.7 V 691 – Steward Observatory, Kitt Peak-Spacewatch MPS 171443
2006 05 18.37198 15 54 23.17 -10 42 38.9 18.8 R 644 – Palomar Mountain/NEAT MPS 172127
2006 05 18.39646 15 54 21.78 -10 42 38.2 19.1 R 644 – Palomar Mountain/NEAT MPS 172127
2006 05 18.43222 15 54 19.75 -10 42 37.4 19.0 R 644 – Palomar Mountain/NEAT MPS 172127
2006 05 20.37056 15 52 32.55 -10 42 04.8 18.8 R 644 – Palomar Mountain/NEAT MPS 172127
2006 05 20.39342 15 52 31.23 -10 42 04.3 19.4 R 644 – Palomar Mountain/NEAT MPS 172127
2006 05 20.42200 15 52 29.59 -10 42 03.6 18.6 R 644 – Palomar Mountain/NEAT MPS 172128
2006 05 22.30172 15 50 44.72 -10 41 47.5   691 – Steward Observatory, Kitt Peak-Spacewatch MPS 172910
2006 05 22.31914 15 50 43.70 -10 41 47.6   691 – Steward Observatory, Kitt Peak-Spacewatch MPS 172910
2006 05 22.33654 15 50 42.69 -10 41 47.5   691 – Steward Observatory, Kitt Peak-Spacewatch MPS 172910
2006 05 26.24569 15 47 02.95 -10 42 08.7 19.4 V 691 – Steward Observatory, Kitt Peak-Spacewatch MPS 172910
2006 05 26.26309 15 47 01.93 -10 42 09.0 19.2 V 691 – Steward Observatory, Kitt Peak-Spacewatch MPS 172910
2006 05 26.28051 15 47 00.99 -10 42 09.2 18.9 V 691 – Steward Observatory, Kitt Peak-Spacewatch MPS 172910
2006 05 26.34275 15 46 57.25 -10 42 10.9 18.9 V 703 – Catalina Sky Survey MPS 172911
2006 05 26.35283 15 46 56.67 -10 42 11.0 18.8 V 703 – Catalina Sky Survey MPS 172911
2006 05 26.36291 15 46 56.06 -10 42 10.9 18.6 V 703 – Catalina Sky Survey MPS 172911
2006 05 26.37303 15 46 55.56 -10 42 11.0 18.7 V 703 – Catalina Sky Survey MPS 172911
2006 05 28.28420 15 45 08.54 -10 42 50.2 18.8   704 – Lincoln Laboratory ETS, New Mexico MPS 172911
2006 05 28.29573 15 45 07.89 -10 42 50.6 19.4   704 – Lincoln Laboratory ETS, New Mexico MPS 172911
2006 05 28.30728 15 45 07.10 -10 42 50.7 18.5   704 – Lincoln Laboratory ETS, New Mexico MPS 172911
2006 05 28.31882 15 45 06.47 -10 42 51.3 18.3   704 – Lincoln Laboratory ETS, New Mexico MPS 172911
2006 05 28.33036 15 45 05.82 -10 42 51.2 19.0   704 – Lincoln Laboratory ETS, New Mexico MPS 172911
2006 06 21.27638 15 25 54.80 -11 22 23.2 19.2 R 644 – Palomar Mountain/NEAT MPS 173964
2006 06 21.29705 15 25 54.01 -11 22 27.1 18.9 R 644 – Palomar Mountain/NEAT MPS 173964
2006 06 21.31843 15 25 53.25 -11 22 30.8 19.1 R 644 – Palomar Mountain/NEAT MPS 173964
2007 10 10.40538 03 57 30.40 +07 43 19.9 18.8 r 699 – Lowell Observatory-LONEOS MPS 220592
2007 10 10.42091 03 57 30.08 +07 43 17.9   699 – Lowell Observatory-LONEOS MPS 220592
2007 10 10.43646 03 57 29.66 +07 43 17.0   699 – Lowell Observatory-LONEOS MPS 220592
2007 10 10.45201 03 57 29.23 +07 43 15.8   699 – Lowell Observatory-LONEOS MPS 220592
2007 10 13.30615 03 56 15.21 +07 39 11.0 19.0 V 703 – Catalina Sky Survey MPS 220592
2007 10 13.31328 03 56 15.07 +07 39 10.6 19.3 V 703 – Catalina Sky Survey MPS 220592
2007 10 13.32308 03 56 14.74 +07 39 09.7 19.0 V 703 – Catalina Sky Survey MPS 220592
2007 10 13.33025 03 56 14.49 +07 39 09.3 19.0 V 703 – Catalina Sky Survey MPS 220592
2007 10 20.32855 03 52 14.36 +07 29 38.1 19.2 C 704 – Lincoln Laboratory ETS, New Mexico MPS 287399
2007 10 20.33992 03 52 13.88 +07 29 37.9 18.9 C 704 – Lincoln Laboratory ETS, New Mexico MPS 287399
2007 10 20.35132 03 52 13.39 +07 29 36.5 18.9 C 704 – Lincoln Laboratory ETS, New Mexico MPS 287399
2007 10 20.36278 03 52 12.94 +07 29 35.5 18.6 C 704 – Lincoln Laboratory ETS, New Mexico MPS 287399
2007 10 30.42244 03 44 25.98 +07 19 09.6 18.3 V 703 – Catalina Sky Survey MPS 223480
2007 10 30.42957 03 44 25.62 +07 19 08.0 18.5 V 703 – Catalina Sky Survey MPS 223480
2007 10 30.43678 03 44 25.18 +07 19 07.1 18.6 V 703 – Catalina Sky Survey MPS 223480
2007 10 30.44395 03 44 24.82 +07 19 07.3 18.7 V 703 – Catalina Sky Survey MPS 223480
2007 11 07.27948 03 37 12.10 +07 15 28.1 18.5 V 703 – Catalina Sky Survey MPS 224925
2007 11 07.28712 03 37 11.67 +07 15 28.0 18.2 V 703 – Catalina Sky Survey MPS 224925
2007 11 07.29473 03 37 11.20 +07 15 28.0 18.0 V 703 – Catalina Sky Survey MPS 224925
2007 11 07.30237 03 37 10.74 +07 15 28.0 18.1 V 703 – Catalina Sky Survey MPS 224925
2007 11 11.25567 03 33 20.40 +07 15 39.5 18.5   704 – Lincoln Laboratory ETS, New Mexico MPS 226896
2007 11 11.26822 03 33 19.65 +07 15 39.9 18.7   704 – Lincoln Laboratory ETS, New Mexico MPS 226896
2007 11 11.29294 03 33 18.19 +07 15 40.6 18.1   704 – Lincoln Laboratory ETS, New Mexico MPS 226896
2007 11 11.30534 03 33 17.41 +07 15 40.3 18.2   704 – Lincoln Laboratory ETS, New Mexico MPS 226896
2007 11 15.26267 03 29 24.96 +07 17 27.9 18.8 r 699 – Lowell Observatory-LONEOS MPS 226896
2007 11 15.28547 03 29 23.58 +07 17 28.1 18.5 r 699 – Lowell Observatory-LONEOS MPS 226896
2007 11 15.30826 03 29 22.22 +07 17 29.9 18.3 r 699 – Lowell Observatory-LONEOS MPS 226896
2007 11 15.33107 03 29 20.81 +07 17 30.7 18.6 r 699 – Lowell Observatory-LONEOS MPS 226896
2007 11 17.30809 03 27 25.48 +07 19 03.7 18.2 V G96 – Mt. Lemmon Survey MPS 228298
2007 11 17.31558 03 27 25.05 +07 19 03.9 18.1 V G96 – Mt. Lemmon Survey MPS 228298
2007 11 17.32294 03 27 24.58 +07 19 04.4 18.0 V G96 – Mt. Lemmon Survey MPS 228298
2007 11 17.33046 03 27 24.15 +07 19 04.8 17.8 V G96 – Mt. Lemmon Survey MPS 228298
2007 11 20.19689 03 24 39.56 +07 22 06.8 17.8 V 703 – Catalina Sky Survey MPS 229019
2007 11 20.20229 03 24 39.24 +07 22 06.9 17.6 V 703 – Catalina Sky Survey MPS 229019
2007 11 20.20767 03 24 38.95 +07 22 07.5 17.8 V 703 – Catalina Sky Survey MPS 229019
2007 11 20.21308 03 24 38.59 +07 22 07.8 18.1 V 703 – Catalina Sky Survey MPS 229019
2007 11 29.32701 03 16 29.69 +07 38 05.8 18.8   704 – Lincoln Laboratory ETS, New Mexico MPS 229019
2007 11 29.33960 03 16 29.02 +07 38 07.7 19.2   704 – Lincoln Laboratory ETS, New Mexico MPS 229019
2007 11 29.35221 03 16 28.35 +07 38 09.4 19.3   704 – Lincoln Laboratory ETS, New Mexico MPS 229019
2007 11 29.36496 03 16 27.65 +07 38 11.1 19.0   704 – Lincoln Laboratory ETS, New Mexico MPS 229019
2007 11 29.37757 03 16 27.12 +07 38 12.1 19.2   704 – Lincoln Laboratory ETS, New Mexico MPS 229019
2007 12 15.18167 03 05 59.53 +08 28 40.0 19.2 V 703 – Catalina Sky Survey MPS 231808
2007 12 15.18766 03 05 59.42 +08 28 42.3 19.4 V 703 – Catalina Sky Survey MPS 231808
2007 12 15.19359 03 05 59.20 +08 28 43.8 19.6 V 703 – Catalina Sky Survey MPS 231808
2007 12 15.19953 03 05 59.02 +08 28 44.6 19.5 V 703 – Catalina Sky Survey MPS 231808
2007 12 18.16115 03 04 41.77 +08 41 13.0 18.6 V G96 – Mt. Lemmon Survey MPS 231808
2007 12 18.16787 03 04 41.59 +08 41 14.8 18.9 V G96 – Mt. Lemmon Survey MPS 231808
2007 12 18.17465 03 04 41.41 +08 41 16.6 19.0 V G96 – Mt. Lemmon Survey MPS 231808
2007 12 18.18145 03 04 41.23 +08 41 18.4 18.9 V G96 – Mt. Lemmon Survey MPS 231808
2007 12 31.18236 03 01 45.58 +09 45 17.7 19.1 V 703 – Catalina Sky Survey MPS 232629
2007 12 31.18988 03 01 45.62 +09 45 19.3 20.3 V 703 – Catalina Sky Survey MPS 232629
2007 12 31.19741 03 01 45.48 +09 45 22.6 19.1 V 703 – Catalina Sky Survey MPS 232629
2007 12 31.20490 03 01 45.40 +09 45 26.3 19.6 V 703 – Catalina Sky Survey MPS 232629
2008 02 12.13757 03 20 10.32 +14 18 47.4 20.1 V G96 – Mt. Lemmon Survey MPS 237573
